Weather History for Rockford, IL

Change the Weather History Date:

Friday, August 1, 2014

  Actual Average Record
Temperature  
Mean Temperature 72 °F 73 °F  
Max Temperature 85 °F 84 °F 101 °F (1988)
Min Temperature 58 °F 63 °F 48 °F (1924)
Degree Days  
Heating Degree Days 0 0  
Month to date heating degree days 0 0  
Since 1 June heating degree days 21 34  
Since 1 July heating degree days 10 3  
Cooling Degree Days 7 8  
Month to date cooling degree days 7 8  
Year to date cooling degree days 432 512  
Since 1 June cooling degree days 349 457  
Growing Degree Days 20 (Base 50)    
Moisture  
Dew Point 58 °F    
Average Humidity 67    
Maximum Humidity 90    
Minimum Humidity 43    
Precipitation  
Precipitation 1.35 in 0.15 in 1.35 in (2014)
Month to date precipitation 1.35 0.15  
Year to date precipitation 21.84 21.22  
Snow  
Snow T in 0.00 in 0.00 in ()
Month to date snowfall T 0.0  
Since 1 June snowfall T 0.0  
Since 1 July snowfall T 0.0  
Snow Depth 0.00 in    
Sea Level Pressure  
Sea Level Pressure 30.09 in    
Wind  
Wind Speed 6 mph (SSW)    
Max Wind Speed 22 mph    
Max Gust Speed 28 mph    
Visibility 9 miles    
Events Rain , Hail , Thunderstorm    
T = Trace of Precipitation, MM = Missing Value Source: NWS Daily Summary

Daily Weather History Graph

Daily Weather History Graph

Search for Another Location

Airport:

Trip Planner

Search our weather history database for the weather conditions in past years. The results will help you decide how hot, cold, wet, or windy it might be!

Date:

Astronomy

Aug. 01, 2014 Rise Set
Actual Time 5:49 AM CDT 8:15 PM CDT
Civil Twilight 5:17 AM CDT 8:46 PM CDT
Nautical Twilight 4:38 AM CDT 9:26 PM CDT
Astronomical Twilight 3:54 AM CDT 10:09 PM CDT
Moon 11:20 AM CDT (8/1) 10:52 PM CDT (8/1)
Length of Visible Light 15h 29m
Length of Day
14h 26m
Waxing Crescent, 28% of the Moon is Illuminated
Aug 1
Waxing Crescent
Aug 3
First Quarter
Aug 10
Full
Aug 17
Last Quarter
Aug 25
New

Hourly Weather History & Observations

Time (CDT) Temp. Heat Index Dew Point Humidity Pressure Visibility Wind Dir Wind Speed Gust Speed Precip Events Conditions
12:54 AM 62.1 °F - 57.9 °F 86% 30.06 in 10.0 mi South 3.5 mph - N/A   Clear
1:54 AM 62.1 °F - 57.0 °F 84% 30.06 in 10.0 mi South 3.5 mph - N/A   Clear
2:54 AM 60.8 °F - 57.2 °F 88% 30.07 in 10.0 mi SSE 3.5 mph - N/A   Scattered Clouds
3:54 AM 62.1 °F - 57.0 °F 84% 30.06 in 10.0 mi Calm Calm - N/A   Mostly Cloudy
4:54 AM 61.0 °F - 57.9 °F 90% 30.06 in 10.0 mi Calm Calm - N/A   Scattered Clouds
5:54 AM 59.0 °F - 55.9 °F 90% 30.08 in 10.0 mi South 4.6 mph - N/A   Mostly Cloudy
6:54 AM 62.1 °F - 59.0 °F 90% 30.09 in 8.0 mi South 4.6 mph - N/A   Scattered Clouds
7:54 AM 64.9 °F - 61.0 °F 87% 30.10 in 9.0 mi SSW 6.9 mph - N/A   Scattered Clouds
8:54 AM 71.1 °F - 63.0 °F 75% 30.09 in 10.0 mi Calm Calm - N/A   Partly Cloudy
9:54 AM 75.9 °F - 61.0 °F 60% 30.10 in 10.0 mi SW 4.6 mph - N/A   Partly Cloudy
10:54 AM 75.9 °F - 59.0 °F 56% 30.10 in 10.0 mi Variable 4.6 mph - N/A   Scattered Clouds
11:54 AM 79.0 °F - 60.1 °F 52% 30.09 in 10.0 mi SSW 4.6 mph - N/A   Scattered Clouds
12:54 PM 82.4 °F 82.5 °F 59.0 °F 45% 30.10 in 10.0 mi Variable 5.8 mph - N/A   Scattered Clouds
1:54 PM 82.9 °F 83.2 °F 60.1 °F 46% 30.07 in 10.0 mi WSW 8.1 mph - N/A   Scattered Clouds
2:54 PM 82.0 °F 82.1 °F 59.0 °F 45% 30.06 in 10.0 mi SW 6.9 mph - N/A   Scattered Clouds
3:40 PM 82.0 °F 82.1 °F 59.0 °F 45% 30.06 in 10.0 mi West 9.2 mph - N/A   Scattered Clouds
3:54 PM 81.0 °F 81.1 °F 57.9 °F 45% 30.05 in 10.0 mi West 5.8 mph - N/A   Scattered Clouds
4:21 PM 82.9 °F 82.4 °F 57.0 °F 41% 30.07 in 10.0 mi WSW 5.8 mph - N/A Thunderstorm Thunderstorm
4:54 PM 82.4 °F 82.5 °F 59.0 °F 45% 30.06 in 10.0 mi Calm Calm - N/A   Scattered Clouds
5:54 PM 82.9 °F 82.6 °F 57.9 °F 42% 30.04 in 10.0 mi Variable 4.6 mph - N/A   Scattered Clouds
6:41 PM 80.1 °F 80.6 °F 57.9 °F 47% 30.07 in 10.0 mi South 8.1 mph - N/A Thunderstorm Thunderstorm
6:54 PM 80.1 °F 81.1 °F 61.0 °F 52% 30.07 in 8.0 mi ESE 9.2 mph - 0.00 in Rain , Thunderstorm Heavy Thunderstorms and Rain
7:08 PM 75.0 °F - 54.0 °F 48% 30.11 in 5.0 mi Variable 4.6 mph 23.0 mph 0.21 in Rain , Hail , Thunderstorm Heavy Thunderstorms and Rain
7:26 PM 68.0 °F - 51.1 °F 55% 30.09 in 4.0 mi WSW 12.7 mph - 0.58 in Rain , Thunderstorm Thunderstorms and Rain
7:52 PM 64.4 °F - 57.2 °F 77% 30.12 in 1.0 mi NW 21.9 mph 28.8 mph 0.80 in Rain , Thunderstorm Heavy Thunderstorms and Rain
7:54 PM 64.0 °F - 57.0 °F 78% 30.12 in 1.0 mi NNW 19.6 mph 28.8 mph 0.82 in Rain , Thunderstorm Heavy Thunderstorms and Rain
8:08 PM 64.0 °F - 55.0 °F 73% 30.13 in 3.0 mi SW 9.2 mph - 0.44 in Rain , Thunderstorm Heavy Thunderstorms and Rain
8:54 PM 64.0 °F - 59.0 °F 84% 30.15 in 7.0 mi East 17.3 mph - 0.53 in Rain , Thunderstorm Light Thunderstorms and Rain
9:02 PM 63.0 °F - 57.9 °F 84% 30.16 in 10.0 mi East 17.3 mph - 0.00 in Rain , Thunderstorm Light Thunderstorms and Rain
9:22 PM 63.0 °F - 59.0 °F 87% 30.16 in 10.0 mi SSE 12.7 mph - 0.00 in   Mostly Cloudy
9:54 PM 63.0 °F - 59.0 °F 87% 30.17 in 10.0 mi SSE 10.4 mph - 0.00 in   Overcast
10:54 PM 63.0 °F - 57.0 °F 81% 30.13 in 10.0 mi SSW 6.9 mph - N/A   Overcast
11:54 PM 61.0 °F - 57.0 °F 87% 30.12 in 10.0 mi WSW 3.5 mph - N/A   Overcast